Weather History for KBMI - November, 2013

Change the Weather History Date:

Thursday, November 28, 2013

  Actual Average Record
Temperature  
Mean Temperature 25 °F -  
Max Temperature 34 °F 32 °F 68 °F (1998)
Min Temperature 16 °F 17 °F 15 °F (2014)
Degree Days  
Heating Degree Days 40    
Moisture  
Dew Point 13 °F    
Average Humidity 62    
Maximum Humidity 78    
Minimum Humidity 44    
Precipitation  
Precipitation 0.00 in - - ()
Sea Level Pressure  
Sea Level Pressure 30.37 in    
Wind  
Wind Speed 11 mph (WSW)    
Max Wind Speed 18 mph    
Max Gust Speed -    
Visibility 10 miles    
Events      
Averages and records for this station are not official NWS values.
T = Trace of Precipitation, MM = Missing Value Source: NWS Daily Summary

Daily Weather History Graph

Daily Weather History Graph

Search for Another Location

Airport or City:

Trip Planner

Search our weather history database for the weather conditions in past years. The results will help you decide how hot, cold, wet, or windy it might be!

Date:

Astronomy

Nov. 28, 2013 Rise Set
Actual Time 6:56 AM CST 4:30 PM CST
Civil Twilight 6:26 AM CST 5:00 PM CST
Nautical Twilight 5:52 AM CST 5:34 PM CST
Astronomical Twilight 5:20 AM CST 6:07 PM CST
Moon 1:58 AM CST (11/28) 1:40 PM CST (11/28)
Length of Visible Light 10h 33m
Length of Day
9h 33m
Waning Crescent, 22% of the Moon is Illuminated
Nov 28
Waning Crescent
Dec 2
New
Dec 9
First Quarter
Dec 17
Full
Dec 25
Last Quarter

Hourly Weather History & Observations

Time (CST) Temp. Windchill Dew Point Humidity Pressure Visibility Wind Dir Wind Speed Gust Speed Precip Events Conditions
12:56 AM 18.1 °F 8.9 °F 10.0 °F 71% 30.34 in 10.0 mi SSW 6.9 mph - N/A   Overcast
1:56 AM 17.1 °F 7.6 °F 10.0 °F 74% 30.35 in 10.0 mi SSW 6.9 mph - N/A   Mostly Cloudy
2:56 AM 16.2 °F 3.9 °F 9.1 °F 74% 30.33 in 10.0 mi South 10.4 mph - N/A   Scattered Clouds
3:56 AM 19.0 °F 5.6 °F 10.0 °F 68% 30.31 in 10.0 mi South 13.8 mph - N/A   Overcast
4:56 AM 19.0 °F 4.0 °F 9.1 °F 65% 30.29 in 10.0 mi South 17.3 mph - N/A   Overcast
5:56 AM 18.1 °F 2.4 °F 9.1 °F 68% 30.28 in 10.0 mi South 18.4 mph - N/A   Partly Cloudy
6:56 AM 19.0 °F 4.5 °F 9.1 °F 65% 30.28 in 10.0 mi South 16.1 mph - N/A   Clear
7:56 AM 21.0 °F 7.6 °F 11.1 °F 66% 30.29 in 10.0 mi South 15.0 mph - N/A   Clear
8:56 AM 25.2 °F 12.0 °F 12.0 °F 58% 30.29 in 10.0 mi SSW 17.3 mph - N/A   Clear
9:56 AM 28.0 °F 15.7 °F 12.0 °F 51% 30.29 in 10.0 mi SW 17.3 mph - N/A   Clear
10:56 AM 31.1 °F 20.5 °F 13.1 °F 47% 30.29 in 10.0 mi WSW 15.0 mph - N/A   Clear
11:56 AM 32.9 °F 24.1 °F 14.0 °F 46% 30.27 in 10.0 mi WSW 11.5 mph - N/A   Clear
12:56 PM 34.9 °F 25.3 °F 15.1 °F 44% 30.27 in 10.0 mi West 15.0 mph - N/A   Clear
1:56 PM 34.9 °F 24.9 °F 15.1 °F 44% 30.30 in 10.0 mi West 16.1 mph - N/A   Clear
2:56 PM 34.9 °F 25.7 °F 16.2 °F 46% 30.33 in 10.0 mi West 13.8 mph - N/A   Clear
3:56 PM 34.0 °F 25.5 °F 17.1 °F 50% 30.36 in 10.0 mi WNW 11.5 mph - N/A   Clear
4:56 PM 30.0 °F 24.1 °F 16.2 °F 56% 30.40 in 10.0 mi NW 5.8 mph - N/A   Clear
5:56 PM 27.1 °F 18.2 °F 16.2 °F 63% 30.44 in 10.0 mi NNW 9.2 mph - N/A   Clear
6:56 PM 26.1 °F 17.6 °F 15.1 °F 63% 30.48 in 10.0 mi NW 8.1 mph - N/A   Clear
7:56 PM 25.2 °F 18.3 °F 15.1 °F 66% 30.50 in 10.0 mi NW 5.8 mph - N/A   Clear
8:56 PM 23.0 °F 13.9 °F 14.0 °F 68% 30.51 in 10.0 mi NNW 8.1 mph - N/A   Clear
9:56 PM 22.1 °F 12.8 °F 14.0 °F 71% 30.53 in 10.0 mi North 8.1 mph - N/A   Clear
10:56 PM 20.1 °F 10.3 °F 14.0 °F 77% 30.55 in 10.0 mi North 8.1 mph - N/A   Clear
11:56 PM 19.0 °F 12.3 °F 13.1 °F 78% 30.56 in 10.0 mi North 4.6 mph - N/A   Clear